Regional Weather Roundup
Issued by NWS

Home | Current Version | Previous Version | Text Only | Print | Product List | Glossary Off
Versions: 1 2 3 4 5 6 7 8 9 10 11 12 13 14 15 16 17 18 19 20 21 22 23 24 25 26 27 28 29 30 31 32 33 34 35 36 37 38 39 40 41 42 43 44 45 46 47 48 49 50

000
ASUS43 KMPX 270901
RWRMN
WEATHER ROUNDUP FOR MINNESOTA
NATIONAL WEATHER SERVICE TWIN CITIES/CHANHASSEN MN
300 AM CST FRI FEB 27 2015


NOTE: "FAIR" INDICATES FEW OR NO CLOUDS BELOW 12,000 FEET WITH NO
SIGNIFICANT WEATHER AND/OR OBSTRUCTIONS TO VISIBILITY. N/A MEANS
CURRENT SKY AND/OR WEATHER CONDITIONS ARE NOT AVAILABLE.

MNZ060>063-068>070-271000-
   Twin Cities Metro

CITY           SKY/WX    TMP DP  RH WIND       PRES   REMARKS
TWIN CITIES    CLEAR     -1  -9  68 W6        30.51S WCI -13
ST PAUL        CLEAR     -1  -9  68 NW7       30.53S WCI -14
CRYSTAL        CLEAR     -1  -9  68 W5        30.50S WCI -11
BLAINE         CLEAR      0  -8  71 W5        30.49R WCI -10
EDEN PRAIRIE   CLEAR     -5 -11  75 W6        30.50S WCI -18
SOUTH ST PAUL  CLEAR     -2  -8  74 CALM      30.51S
LAKE ELMO      FAIR       0  -8  71 CALM      30.50S
$$
MNZ001>005-007-008-013>017-022>024-027-028-271000-
   Northwest Minnesota

CITY           SKY/WX    TMP DP  RH WIND       PRES   REMARKS
BEMIDJI        PTCLDY   -10 -15  81 W5        30.39S WCI -22
HALLOCK        PTCLDY   -15 -20  76 S6        30.42F WCI -29
ROSEAU         MOCLDY    -9 -15  77 SW8       30.39S WCI -26
WARROAD        PTCLDY    -8 -15  71 SW5       30.38S WCI -19
THIEF RVR FALL PTCLDY    -9 -18  64 SW5       30.41F WCI -21
CROOKSTON      PTCLDY   -15 -18  84 S6        30.47S WCI -29
FOSSTON        FAIR     -17 -20  83 S5        30.42F WCI -29
DETROIT LAKES  PTCLDY    -6  -9  84 CALM      30.43F
MOORHEAD       CLEAR     -8 -11  84 SW6       30.49F WCI -21
PARK RAPIDS    CLEAR     -9 -13  83 CALM      30.39F
MAHNOMEN       FAIR     -12 -17  80 S5        30.43S WCI -24
$$
MNZ006-009>011-018-025>026-271000-
   North Central Minnesota

CITY           SKY/WX    TMP DP  RH WIND       PRES   REMARKS
BAUDETTE       PTCLDY   -11 -16  78 W5        30.35F WCI -23
FLAG ISLAND    PTCLDY    -8 -13  77 CALM      30.35S
INTL FALLS     PTCLDY   -13 -18  78 SW3       30.36S
WASKISH        PTCLDY    -8 -11  84 SW7       30.39S WCI -22
BIG FORK       PTCLDY   -17 -24  70 CALM      30.37F
LONGVILLE      CLEAR    -18 -24  76 CALM      30.41S
GRAND RAPIDS   PTCLDY    -8 -13  77 W7        30.36S WCI -22
CRANE LAKE     MOCLDY   -24 -29  76 CALM      30.39S
ORR            MOCLDY   -13 -18  77 CALM      30.33S
COOK           PTCLDY   -15 -18  84 CALM      30.36S
WALKER         FAIR     -11 -15  81 W6        30.40S WCI -25
$$
MNZ012-019>021-037-271000-
   Northeast Minnesota

CITY           SKY/WX    TMP DP  RH WIND       PRES   REMARKS
DULUTH         PTCLDY    -7 -14  71 W10       30.34F WCI -25
ELY            PTCLDY   -15 -18  84 CALM      30.33S
HIBBING        PTCLDY   -13 -18  78 CALM      30.36S
EVELETH        PTCLDY   -13 -18  77 W5        30.36S WCI -25
DULUTH HARBOR  CLEAR     -6 -13  71 CALM      30.47S
TWO HARBORS    CLEAR     -8 -15  71 W3        30.36S
SILVER BAY     CLEAR     -9 -17  70 CALM      30.35S
GRAND MARAIS     N/A     -4 -13  65 W3        30.38S
G MARAIS ARPRT PTCLDY    -6 -17  59 NW9       30.22S WCI -22
$$
MNZ029>031-032-039>041-046>048-054>057-064-271000-
   West Central Minnesota

CITY           SKY/WX    TMP DP  RH WIND       PRES   REMARKS
FERGUS FALLS   CLEAR     -8 -15  71 CALM      30.52S
WHEATON        CLEAR     -9 -15  77 SW6       30.53S WCI -23
MORRIS         CLEAR     -9 -15  77 W3        30.49S
ALEXANDRIA     CLEAR     -8 -12  83 W7        30.45R WCI -23
ELBOW LAKE     FAIR     -10 -13  83 W7        30.47S WCI -24
WADENA         CLEAR     -9 -15  77 W3        30.43S
GLENWOOD       CLEAR     -9 -15  77 SW6       30.47S WCI -23
APPLETON       CLEAR    -11 -17  77 W7        30.53S WCI -26
BENSON         CLEAR    -11 -17  77 CALM      30.50S
ORTONVILLE     CLEAR     -6 -11  77 W5        30.51S WCI -17
MADISON        CLEAR     -8 -17  65 W7        30.53S WCI -22
WILLMAR        FAIR      -9 -15  77 W6        30.51S WCI -23
$$
MNZ033>034-036-042>043-049>051-058-059-271000-
   Central Minnesota

CITY           SKY/WX    TMP DP  RH WIND       PRES   REMARKS
ST CLOUD       CLEAR     -6 -10  83 W3        30.48S
SAUK CENTRE    FAIR      -8 -12  83 W3        30.47R
PAYNESVILLE    CLEAR    -10 -14  84 SW5       30.48F WCI -22
AITKIN         CLEAR     -6 -11  77 W3        30.41S
PINE RIVER     CLEAR    -15 -20  76 CALM      30.44S
BRAINERD       CLEAR     -8 -13  78 CALM      30.44S
STAPLES        CLEAR     -9 -15  77 W5        30.43S WCI -21
LONG PRAIRIE   FAIR      -6  -9  84 CALM      30.45R
LITTLE FALLS   CLEAR     -9 -15  77 CALM      30.48S
LITCHFIELD     CLEAR     -8 -11  84 CALM      30.50S
BUFFALO        CLEAR     -4  -9  77 CALM      30.51S
MAPLE LAKE     CLEAR     -2  -6  82 W3        30.50S
$$
MNZ037-044-045-052-053-271000-
   East Central Minnesota

CITY           SKY/WX    TMP DP  RH WIND       PRES   REMARKS
PRINCETON      CLEAR     -9 -15  77 CALM      30.47F
MORA           CLEAR    -13 -18  77 CALM      30.48R
CAMBRIDGE      CLEAR     -6 -13  71 CALM      30.47R
RUSH CITY      CLOUDY    -9 -14  76 W3        30.48R
MOOSE LAKE     CLEAR     -4 -13  65 CALM      30.41S
HINCKLEY       FAIR      -8 -15  71 CALM      30.45S
CLOQUET        CLEAR     -6 -13  71 W9        30.37F WCI -22
MCGREGOR       CLEAR     -6 -11  77 CALM      30.42S
$$
MNZ071>073-080-081-089-090-097-098-271000-
   Southwest Minnesota

CITY           SKY/WX    TMP DP  RH WIND       PRES   REMARKS
MONTEVIDEO     CLEAR     -8 -13  77 NW6       30.53F WCI -21
GRANITE FALLS  CLEAR    -13 -18  79 SW7       30.55R WCI -29
CANBY          CLEAR     -6 -12  75 W6        30.53S WCI -19
MARSHALL       CLEAR     -8 -17  65 W8        30.52S WCI -23
REDWOOD FALLS  CLEAR     -8 -14  74 W8        30.53S WCI -24
OLIVIA         CLEAR    -11 -15  84 W5        30.51F WCI -23
PIPESTONE      PTCLDY   -11 -15  84 CALM      30.47F
WINDOM         CLEAR    -15 -18  84 CALM      30.49F
WORTHINGTON    CLEAR     19 -22  15 W8        30.51R WCI   9
JACKSON        CLEAR     -9 -17  70 W7        30.49S WCI -24
TRACY          CLEAR     -6 -12  75 W7        30.51S WCI -21
SLAYTON        CLEAR    -10 -16  73 CALM      30.48F
$$
MNZ065>067-074>077-082>085-091>093-271000-
   South Central Minnesota

CITY           SKY/WX    TMP DP  RH WIND       PRES   REMARKS
MANKATO        CLEAR     -8 -15  71 W5        30.51S WCI -19
NEW ULM        CLEAR    -13 -18  77 W5        30.52S WCI -25
ST JAMES       CLEAR     -6 -11  77 W8        30.52F WCI -21
FAIRMONT       CLEAR     -8 -13  77 NW8       30.49S WCI -23
GLENCOE        CLEAR     -7 -10  84 W5        30.50F WCI -18
FARIBAULT      CLEAR    -15 -18  84 CALM      30.50S
OWATONNA       CLEAR    -15 -18  84 SW3       30.49S
WASECA         CLEAR    -15 -20  76 CALM      30.52R
ALBERT LEA     CLEAR    -11 -15  84 W3        30.48S
$$
MNZ078>079-086>088-094>096-271000-
   Southeast Minnesota

CITY           SKY/WX    TMP DP  RH WIND       PRES   REMARKS
ROCHESTER      CLEAR    -12 -16  82 W10       30.46R WCI -31
RED WING       CLEAR    -11 -18  70 CALM      30.50F
STANTON        CLEAR     -9 -15  75 SW5       30.50S WCI -20
DODGE CENTER   LGT SNOW -13 -17  84 W5        30.45S WCI -25
WINONA         CLEAR     -6  -9  84 CALM      30.53R
AUSTIN         CLEAR     -9 -15  77 NW6       30.48R WCI -23
PRESTON        CLEAR    -12 -16  79 NW8       30.46S WCI -28
$$
ABBREVIATIONS USED IN REMARKS
   TC - TEMPERATURES IN CELSIUS
  WCI - WIND CHILL INDEX
   HX - HEAT INDEX
  VSB - VISIBILITY
$$



USA.gov is the U.S. government's official web portal to all federal, state and local government web resources and services.